星链-32003 (STARLINK-32003 )

导读

STARLINK-32003是美国SpaceX公司星链(Starlink)星座的一员,于2024年6月23日发射升空。作为低轨通信卫星,它运行在近地轨道,依托星链全球卫星互联网项目,为全球提供高速宽带互联网服务。卫星采用平板设计,搭载氪工质霍尔推进器,具备自主避撞能力,寿命结束后会再入大气层烧毁,减少空间碎片影响。

Basic Information
目录编号:
60097
目录名称:
STARLINK-32003
国际标识:
2024-117G
轨道中心:
EARTH
卫星名称:
星链-32003
卫星全名:
星链-32003 (STARLINK-32003 )
卫星状态:
在轨 (已飞行803 天)
发射日期:
2024-06-23 UTC
国别 :
美国 (US)
星等 :
--
Orbit Information
数据来源 国际轨道数据
星历时间: 2026-09-03T21:03:17+0800
16小时前
查看轨道信息
半长轴: 6840.87km
偏心率: 0.0001017
轨道倾角: 53.159°
近地点辐角 84.969°
升交点赤经 289.106°
平近点角 275.142°
近地点: 462.037km
远地点: 463.429km
周期: 93.848分钟
每日圈数: 15.343901
Detailed Information
固有亮度:
5
最大亮度:
1.5
卫星平台:
Starlink v2.0 mini
覆盖范围:
全球
运营商:
太空探索技术公司
运营商所在国:
美国
制造商(研发单位):
太空探索技术公司
制造商所在国:
美国
使用方式:
暂无
Satellite Introduction
星链(Starlink)计划是由太空探索技术公司(SpaceX)提出的一个巨型低轨卫星互联网星座项目,计划在2019年至2024年间在太空搭建由约1.2万颗卫星组成的“星链”网络,其中1584颗将部署在地球上空550千米处的近地轨道,并从2020年开始工作。该卫星仍在工作。
2D Orbit Map
3D Orbit Map
Orbit Altitude Analysis Chart
Orbit Inclination Analysis Chart
Orbit Comprehensive Analysis Chart
View Comprehensive Chart
Conjunction Data List
Event ID Objects TCA Miss Dist (km) Collision Risk Probability Collision Risk Index (CRI) Action
CDM_260901-153905-328706-009724
2026-09-01T
15:39:47+0000
2.393 km
极远距离
1.688817E-6 低风险 0.4
CDM_260905-111605-363306-009721
2026-09-05T
11:16:46+0000
2.751 km
极远距离
1.314519E-6 低风险 0.37
CDM_260904-152505-253906-009722
2026-09-04T
15:25:11+0000
2.764 km
极远距离
1.198126E-6 低风险 0.37
CDM_260904-130405-253906-009722
2026-09-04T
13:04:27+0000
2.971 km
极远距离
1.092646E-6 低风险 0.36